Time,TemperatureF,DewpointF,PressureIn,WindDirection,WindDirectionDegrees,WindSpeedMPH,WindSpeedGustMPH,Humidity,HourlyPrecipIn,Conditions,Clouds,dailyrainin,SolarRadiationWatts/m^2,SoftwareType,DateUTC
2013-09-23 00:04:00,69.6,57.3,29.41,SSE,165,14.0,18.0,65,0.01,,BKN110,0.00,0.00,VWS V14.00,2013-09-23 05:04:00,
2013-09-23 00:09:00,69.8,57.5,29.41,SSE,148,14.0,19.0,65,0.01,,BKN110,0.00,0.00,VWS V14.00,2013-09-23 05:09:00,
2013-09-23 00:14:00,69.8,57.1,29.41,SE,135,13.0,19.0,64,0.01,,BKN110,0.00,0.00,VWS V14.00,2013-09-23 05:14:00,
2013-09-23 00:19:00,69.8,57.1,29.41,SSE,150,14.0,19.0,64,0.01,,BKN110,0.00,0.00,VWS V14.00,2013-09-23 05:19:00,
2013-09-23 00:24:00,69.9,57.2,29.41,SSE,147,11.0,20.0,64,0.01,,BKN110,0.00,0.00,VWS V14.00,2013-09-23 05:24:00,
2013-09-23 00:29:00,70.1,56.9,29.41,SSE,167,12.0,12.0,63,0.01,,BKN110,0.00,0.00,VWS V14.00,2013-09-23 05:29:00,
2013-09-23 00:34:00,70.2,57.0,29.41,SSE,151,17.0,17.0,63,0.01,,BKN110,0.00,0.00,VWS V14.00,2013-09-23 05:34:00,
2013-09-23 00:40:00,70.0,56.8,29.41,SSE,148,16.0,19.0,63,0.01,,BKN110,0.00,0.00,VWS V14.00,2013-09-23 05:40:00,
2013-09-23 00:45:00,70.1,56.9,29.41,SE,142,7.0,19.0,63,0.01,,CLR,0.00,0.00,VWS V14.00,2013-09-23 05:45:00,
2013-09-23 00:50:00,70.4,57.2,29.41,SSE,161,9.0,19.0,63,0.01,,CLR,0.00,0.00,VWS V14.00,2013-09-23 05:50:00,
2013-09-23 00:55:00,71.0,56.9,29.41,South,186,23.0,23.0,61,0.01,,SCT120,0.00,0.00,VWS V14.00,2013-09-23 05:55:00,
2013-09-23 01:00:00,71.5,57.4,29.40,South,188,15.0,19.0,61,0.00,,SCT120,0.00,0.00,VWS V14.00,2013-09-23 06:00:00,
2013-09-23 01:05:00,72.0,57.4,29.40,South,184,11.0,22.0,60,0.00,,SCT120,0.00,0.00,VWS V14.00,2013-09-23 06:05:00,
2013-09-23 01:10:00,72.8,57.2,29.40,South,177,22.0,33.0,58,0.00,,SCT120,0.00,0.00,VWS V14.00,2013-09-23 06:10:00,
2013-09-23 01:15:00,72.8,57.2,29.41,SSE,162,14.0,33.0,58,0.00,,SCT120,0.00,0.00,VWS V14.00,2013-09-23 06:15:00,
2013-09-23 01:20:00,72.3,57.2,29.41,South,171,14.0,33.0,59,0.00,,SCT120,0.00,0.00,VWS V14.00,2013-09-23 06:20:00,
2013-09-23 01:25:00,71.9,57.3,29.40,SSE,159,8.0,33.0,60,0.00,,SCT120,0.00,0.00,VWS V14.00,2013-09-23 06:25:00,
2013-09-23 01:30:00,71.4,57.3,29.40,SSW,194,8.0,14.0,61,0.00,,SCT120,0.00,0.00,VWS V14.00,2013-09-23 06:30:00,
2013-09-23 01:35:00,71.3,57.2,29.39,South,170,12.0,20.0,61,0.00,,SCT120,0.00,0.00,VWS V14.00,2013-09-23 06:35:00,
2013-09-23 01:40:00,71.4,57.3,29.39,SSE,159,15.0,21.0,61,0.00,,SCT120,0.00,0.00,VWS V14.00,2013-09-23 06:40:00,
2013-09-23 01:45:00,71.0,57.3,29.39,South,169,18.0,21.0,62,0.00,,-RA,0.00,0.00,VWS V14.00,2013-09-23 06:45:00,
2013-09-23 01:50:00,70.8,57.2,29.40,SSE,158,10.0,21.0,62,0.00,,-RA,0.00,0.00,VWS V14.00,2013-09-23 06:50:00,
2013-09-23 01:55:00,70.5,57.3,29.40,SSE,154,7.0,21.0,63,0.00,,-RA,0.00,0.00,VWS V14.00,2013-09-23 06:55:00,
2013-09-23 02:00:00,70.2,57.0,29.39,SSE,154,8.0,12.0,63,0.00,,-RA,0.00,0.00,VWS V14.00,2013-09-23 07:00:00,
2013-09-23 02:05:00,70.3,57.1,29.39,SSE,168,12.0,20.0,63,0.00,,-RA,0.00,0.00,VWS V14.00,2013-09-23 07:05:00,
2013-09-23 02:10:00,70.1,56.9,29.39,SSE,150,8.0,20.0,63,0.00,,-RA,0.00,0.00,VWS V14.00,2013-09-23 07:10:00,
2013-09-23 02:15:00,69.8,56.7,29.39,SSE,158,10.0,20.0,63,0.00,,-RA,0.00,0.00,VWS V14.00,2013-09-23 07:15:00,
2013-09-23 02:20:00,69.8,56.7,29.39,SSE,150,14.0,20.0,63,0.00,,-RA,0.00,0.00,VWS V14.00,2013-09-23 07:20:00,
2013-09-23 02:25:00,69.6,56.5,29.39,SE,143,9.0,20.0,63,0.00,,-RA,0.00,0.00,VWS V14.00,2013-09-23 07:25:00,
2013-09-23 02:30:00,69.3,56.2,29.40,SE,140,16.0,16.0,63,0.00,,-RA,0.00,0.00,VWS V14.00,2013-09-23 07:30:00,
2013-09-23 02:35:00,69.1,56.4,29.39,SE,141,17.0,19.0,64,0.00,,-RA,0.00,0.00,VWS V14.00,2013-09-23 07:35:00,
2013-09-23 02:40:00,68.6,56.4,29.40,ESE,122,11.0,19.0,65,0.00,,-RA,0.00,0.00,VWS V14.00,2013-09-23 07:40:00,
2013-09-23 02:45:00,68.1,56.3,29.40,SE,134,10.0,19.0,66,0.00,,CLR,0.00,0.00,VWS V14.00,2013-09-23 07:45:00,
2013-09-23 02:50:00,67.8,56.5,29.40,SE,132,12.0,19.0,67,0.00,,CLR,0.00,0.00,VWS V14.00,2013-09-23 07:50:00,
2013-09-23 02:55:00,67.8,56.5,29.40,SSE,154,10.0,19.0,67,0.00,,CLR,0.00,0.00,VWS V14.00,2013-09-23 07:55:00,
2013-09-23 03:00:00,67.9,56.1,29.41,SSE,155,12.0,17.0,66,0.00,,CLR,0.00,0.00,VWS V14.00,2013-09-23 08:00:00,
2013-09-23 03:05:00,68.1,55.9,29.42,South,184,10.0,17.0,65,0.00,,CLR,0.00,0.00,VWS V14.00,2013-09-23 08:05:00,
2013-09-23 03:10:00,68.0,56.2,29.42,South,177,10.0,17.0,66,0.00,,CLR,0.00,0.00,VWS V14.00,2013-09-23 08:10:00,
2013-09-23 03:15:00,67.8,56.5,29.42,South,175,9.0,17.0,67,0.00,,CLR,0.00,0.00,VWS V14.00,2013-09-23 08:15:00,
2013-09-23 03:20:00,68.0,56.2,29.42,South,171,6.0,17.0,66,0.00,,CLR,0.00,0.00,VWS V14.00,2013-09-23 08:20:00,
2013-09-23 03:25:00,68.0,56.2,29.42,South,169,10.0,17.0,66,0.00,,CLR,0.00,0.00,VWS V14.00,2013-09-23 08:25:00,
2013-09-23 03:30:00,68.0,56.2,29.42,SSE,168,9.0,10.0,66,0.00,,CLR,0.00,0.00,VWS V14.00,2013-09-23 08:30:00,
2013-09-23 03:35:00,67.9,56.1,29.42,South,177,7.0,14.0,66,0.00,,CLR,0.00,0.00,VWS V14.00,2013-09-23 08:35:00,
2013-09-23 03:41:00,68.0,55.8,29.42,South,178,11.0,14.0,65,0.00,,CLR,0.00,0.00,VWS V14.00,2013-09-23 08:41:00,
2013-09-23 03:46:00,68.0,55.8,29.42,SSE,166,8.0,14.0,65,0.00,,CLR,0.00,0.00,VWS V14.00,2013-09-23 08:46:00,
2013-09-23 03:51:00,68.0,55.8,29.41,South,186,10.0,15.0,65,0.00,,CLR,0.00,0.00,VWS V14.00,2013-09-23 08:51:00,
2013-09-23 03:56:00,68.3,56.1,29.42,South,173,6.0,15.0,65,0.00,,CLR,0.00,0.00,VWS V14.00,2013-09-23 08:56:00,
2013-09-23 04:01:00,68.1,55.9,29.42,South,175,7.0,9.0,65,0.00,,CLR,0.00,0.00,VWS V14.00,2013-09-23 09:01:00,
2013-09-23 04:06:00,67.7,56.0,29.41,South,179,10.0,10.0,66,0.00,,CLR,0.00,0.00,VWS V14.00,2013-09-23 09:06:00,
2013-09-23 04:11:00,67.5,55.8,29.41,South,175,5.0,12.0,66,0.00,,CLR,0.00,0.00,VWS V14.00,2013-09-23 09:11:00,
2013-09-23 04:16:00,67.3,56.0,29.41,SSE,167,5.0,12.0,67,0.00,,CLR,0.00,0.00,VWS V14.00,2013-09-23 09:16:00,
2013-09-23 04:21:00,67.0,55.7,29.41,SSE,160,3.0,12.0,67,0.00,,CLR,0.00,0.00,VWS V14.00,2013-09-23 09:21:00,
2013-09-23 04:26:00,66.7,55.8,29.41,SSE,151,5.0,12.0,68,0.00,,CLR,0.00,0.00,VWS V14.00,2013-09-23 09:26:00,
2013-09-23 04:31:00,66.3,55.8,29.41,SSE,149,6.0,7.0,69,0.00,,CLR,0.00,0.00,VWS V14.00,2013-09-23 09:31:00,
2013-09-23 04:36:00,65.8,55.8,29.41,SSE,149,5.0,7.0,70,0.00,,CLR,0.00,0.00,VWS V14.00,2013-09-23 09:36:00,
2013-09-23 04:41:00,65.3,55.7,29.41,SSE,149,4.0,7.0,71,0.00,,SCT100,0.00,0.00,VWS V14.00,2013-09-23 09:41:00,
2013-09-23 04:46:00,65.0,55.8,29.41,SE,132,5.0,7.0,72,0.00,,SCT100,0.00,0.00,VWS V14.00,2013-09-23 09:46:00,
2013-09-23 04:51:00,64.8,55.6,29.41,ESE,107,8.0,9.0,72,0.00,,SCT100,0.00,0.00,VWS V14.00,2013-09-23 09:51:00,
2013-09-23 04:56:00,64.4,55.9,29.41,ESE,107,8.0,11.0,74,0.00,,SCT100,0.00,0.00,VWS V14.00,2013-09-23 09:56:00,
2013-09-23 05:01:00,64.5,55.7,29.41,SE,142,6.0,10.0,73,0.00,,SCT100,0.00,0.00,VWS V14.00,2013-09-23 10:01:00,
2013-09-23 05:06:00,64.7,55.5,29.41,SE,138,9.0,12.0,72,0.00,,SCT100,0.00,0.00,VWS V14.00,2013-09-23 10:06:00,
2013-09-23 05:11:00,64.8,55.6,29.42,SE,136,9.0,12.0,72,0.00,,SCT100,0.00,0.00,VWS V14.00,2013-09-23 10:11:00,
2013-09-23 05:16:00,64.5,55.7,29.42,SSE,154,7.0,12.0,73,0.00,,SCT100,0.00,0.00,VWS V14.00,2013-09-23 10:16:00,
2013-09-23 05:21:00,64.4,55.6,29.43,SSE,157,9.0,12.0,73,0.00,,SCT100,0.00,0.00,VWS V14.00,2013-09-23 10:21:00,
2013-09-23 05:26:00,64.3,55.8,29.43,SSE,157,8.0,12.0,74,0.00,,SCT100,0.00,0.00,VWS V14.00,2013-09-23 10:26:00,
2013-09-23 05:31:00,64.4,55.6,29.40,ESE,121,7.0,11.0,73,0.00,,SCT100,0.00,0.00,VWS V14.00,2013-09-23 10:31:00,
2013-09-23 05:36:00,64.7,55.9,29.40,ESE,117,4.0,11.0,73,0.00,,SCT100,0.00,0.00,VWS V14.00,2013-09-23 10:36:00,
2013-09-23 05:41:00,64.2,56.1,29.41,SE,127,7.0,11.0,75,0.00,,CLR,0.00,0.00,VWS V14.00,2013-09-23 10:41:00,
2013-09-23 05:46:00,63.5,55.8,29.41,SE,137,7.0,11.0,76,0.00,,CLR,0.00,0.00,VWS V14.00,2013-09-23 10:46:00,
2013-09-23 05:51:00,63.2,55.9,29.41,SE,138,7.0,11.0,77,0.00,,CLR,0.00,0.00,VWS V14.00,2013-09-23 10:51:00,
2013-09-23 05:56:00,63.3,56.0,29.42,SE,138,6.0,11.0,77,0.00,,CLR,0.00,0.00,VWS V14.00,2013-09-23 10:56:00,
2013-09-23 06:01:00,63.2,55.9,29.41,SE,138,7.0,8.0,77,0.00,,CLR,0.00,0.00,VWS V14.00,2013-09-23 11:01:00,
2013-09-23 06:06:00,63.2,55.9,29.41,SE,138,5.0,8.0,77,0.00,,CLR,0.00,0.00,VWS V14.00,2013-09-23 11:06:00,
2013-09-23 06:11:00,62.8,55.5,29.41,SE,131,6.0,8.0,77,0.00,,CLR,0.00,0.00,VWS V14.00,2013-09-23 11:11:00,
2013-09-23 06:17:00,62.3,55.4,29.41,SE,124,6.0,8.0,78,0.00,,CLR,0.00,0.00,VWS V14.00,2013-09-23 11:17:00,
2013-09-23 06:22:00,61.9,55.3,29.41,ESE,118,8.0,10.0,79,0.00,,CLR,0.00,0.00,VWS V14.00,2013-09-23 11:22:00,
2013-09-23 06:27:00,61.9,55.3,29.42,ESE,123,8.0,10.0,79,0.00,,CLR,0.00,0.00,VWS V14.00,2013-09-23 11:27:00,
2013-09-23 06:32:00,61.6,55.4,29.42,SE,125,6.0,7.0,80,0.00,,CLR,0.00,0.00,VWS V14.00,2013-09-23 11:32:00,
2013-09-23 06:37:00,61.1,55.2,29.42,SE,125,6.0,8.0,81,0.00,,CLR,0.00,0.00,VWS V14.00,2013-09-23 11:37:00,
2013-09-23 06:42:00,60.8,54.9,29.42,SE,125,8.0,9.0,81,0.00,,FEW055,0.00,0.00,VWS V14.00,2013-09-23 11:42:00,
2013-09-23 06:47:00,60.7,54.8,29.42,SE,125,8.0,9.0,81,0.00,,FEW055,0.00,0.00,VWS V14.00,2013-09-23 11:47:00,
2013-09-23 06:52:00,60.7,54.8,29.42,SE,130,6.0,9.0,81,0.00,,FEW055,0.00,0.00,VWS V14.00,2013-09-23 11:52:00,
2013-09-23 06:57:00,60.5,54.7,29.42,SE,129,6.0,9.0,81,0.00,,FEW055,0.00,0.00,VWS V14.00,2013-09-23 11:57:00,
2013-09-23 07:02:00,60.2,54.4,29.42,ESE,113,8.0,10.0,81,0.00,,FEW055,0.00,0.00,VWS V14.00,2013-09-23 12:02:00,
2013-09-23 07:07:00,59.8,54.3,29.42,ESE,108,7.0,10.0,82,0.00,,FEW055,0.00,0.00,VWS V14.00,2013-09-23 12:07:00,
2013-09-23 07:12:00,59.4,53.9,29.42,ESE,107,8.0,10.0,82,0.00,,FEW055,0.00,0.00,VWS V14.00,2013-09-23 12:12:00,
2013-09-23 07:17:00,59.3,54.2,29.42,ESE,115,9.0,13.0,83,0.00,,FEW055,0.00,0.00,VWS V14.00,2013-09-23 12:17:00,
2013-09-23 07:22:00,59.4,53.9,29.42,ESE,110,10.0,13.0,82,0.00,,FEW055,0.00,0.00,VWS V14.00,2013-09-23 12:22:00,
2013-09-23 07:27:00,59.5,54.0,29.42,ESE,112,9.0,13.0,82,0.00,,FEW055,0.00,0.00,VWS V14.00,2013-09-23 12:27:00,
2013-09-23 07:32:00,59.6,54.1,29.42,ESE,115,10.0,11.0,82,0.00,,FEW055,0.00,5.00,VWS V14.00,2013-09-23 12:32:00,
2013-09-23 07:37:00,59.6,54.1,29.42,ESE,115,9.0,13.0,82,0.00,,FEW055,0.00,7.00,VWS V14.00,2013-09-23 12:37:00,
2013-09-23 07:42:00,59.8,54.0,29.43,SE,124,10.0,14.0,81,0.00,,FEW055,0.00,14.00,VWS V14.00,2013-09-23 12:42:00,
2013-09-23 07:47:00,60.1,54.3,29.43,SE,126,11.0,14.0,81,0.00,,FEW055,0.00,21.00,VWS V14.00,2013-09-23 12:47:00,
2013-09-23 07:52:00,60.1,54.3,29.43,SE,126,10.0,14.0,81,0.00,,CLR,0.00,28.00,VWS V14.00,2013-09-23 12:52:00,
2013-09-23 07:57:00,60.1,54.3,29.43,SE,130,9.0,14.0,81,0.00,,CLR,0.00,32.00,VWS V14.00,2013-09-23 12:57:00,
2013-09-23 08:02:00,60.1,54.3,29.44,SE,126,8.0,13.0,81,0.00,,CLR,0.00,35.00,VWS V14.00,2013-09-23 13:02:00,
2013-09-23 08:07:00,60.2,54.4,29.44,SE,129,8.0,13.0,81,0.00,,CLR,0.00,40.00,VWS V14.00,2013-09-23 13:07:00,
2013-09-23 08:12:00,60.1,54.3,29.44,SE,139,9.0,13.0,81,0.00,,CLR,0.00,49.00,VWS V14.00,2013-09-23 13:12:00,
2013-09-23 08:17:00,60.4,54.5,29.44,SE,137,6.0,13.0,81,0.00,,CLR,0.00,54.00,VWS V14.00,2013-09-23 13:17:00,
2013-09-23 08:22:00,60.7,54.8,29.45,SSE,149,6.0,13.0,81,0.00,,CLR,0.00,60.00,VWS V14.00,2013-09-23 13:22:00,
2013-09-23 08:27:00,61.1,54.9,29.45,SSE,150,5.0,13.0,80,0.00,,CLR,0.00,74.00,VWS V14.00,2013-09-23 13:27:00,
2013-09-23 08:33:00,61.3,55.1,29.45,SSE,150,4.0,6.0,80,0.00,,CLR,0.00,84.00,VWS V14.00,2013-09-23 13:33:00,
2013-09-23 08:38:00,61.5,54.9,29.45,SSE,149,6.0,7.0,79,0.00,,CLR,0.00,98.00,VWS V14.00,2013-09-23 13:38:00,
2013-09-23 08:43:00,61.6,55.4,29.44,SSE,149,3.0,7.0,80,0.00,,CLR,0.00,116.00,VWS V14.00,2013-09-23 13:43:00,
2013-09-23 08:48:00,61.8,55.6,29.45,SSE,149,4.0,7.0,80,0.00,,CLR,0.00,156.00,VWS V14.00,2013-09-23 13:48:00,
2013-09-23 08:53:00,62.2,56.0,29.44,SSE,149,5.0,7.0,80,0.00,,CLR,0.00,171.00,VWS V14.00,2013-09-23 13:53:00,
2013-09-23 08:58:00,62.6,55.7,29.45,SSE,148,6.0,7.0,78,0.00,,CLR,0.00,206.00,VWS V14.00,2013-09-23 13:58:00,
2013-09-23 09:03:00,62.8,55.8,29.44,SSE,149,3.0,7.0,78,0.00,,CLR,0.00,206.00,VWS V14.00,2013-09-23 14:03:00,
2013-09-23 09:08:00,63.0,56.4,29.45,SSE,149,4.0,7.0,79,0.00,,CLR,0.00,229.00,VWS V14.00,2013-09-23 14:08:00,
2013-09-23 09:13:00,63.4,56.4,29.45,SSE,149,4.0,7.0,78,0.00,,CLR,0.00,236.00,VWS V14.00,2013-09-23 14:13:00,
2013-09-23 09:18:00,63.7,56.7,29.45,SSE,149,2.0,7.0,78,0.00,,CLR,0.00,243.00,VWS V14.00,2013-09-23 14:18:00,
2013-09-23 09:23:00,64.3,57.7,29.45,SSE,149,1.0,7.0,79,0.00,,CLR,0.00,213.00,VWS V14.00,2013-09-23 14:23:00,
2013-09-23 09:28:00,64.7,57.3,29.45,SSE,149,2.0,7.0,77,0.00,,CLR,0.00,251.00,VWS V14.00,2013-09-23 14:28:00,
2013-09-23 09:33:00,65.3,57.9,29.45,SSE,149,4.0,6.0,77,0.00,,CLR,0.00,318.00,VWS V14.00,2013-09-23 14:33:00,
2013-09-23 09:38:00,65.6,57.5,29.45,SSE,160,5.0,7.0,75,0.00,,CLR,0.00,272.00,VWS V14.00,2013-09-23 14:38:00,
2013-09-23 09:43:00,65.6,57.5,29.45,South,178,6.0,11.0,75,0.00,,SCT110,0.00,183.00,VWS V14.00,2013-09-23 14:43:00,
2013-09-23 09:48:00,65.5,57.7,29.45,South,190,9.0,11.0,76,0.00,,SCT110,0.00,199.00,VWS V14.00,2013-09-23 14:48:00,
2013-09-23 09:53:00,65.4,57.3,29.45,South,190,8.0,11.0,75,0.00,,SCT110,0.00,188.00,VWS V14.00,2013-09-23 14:53:00,
2013-09-23 09:58:00,65.4,57.3,29.45,South,190,6.0,11.0,75,0.00,,SCT110,0.00,206.00,VWS V14.00,2013-09-23 14:58:00,
2013-09-23 10:03:00,65.6,57.8,29.45,South,190,6.0,9.0,76,0.00,,SCT110,0.00,218.00,VWS V14.00,2013-09-23 15:03:00,
2013-09-23 10:08:00,65.6,57.8,29.45,South,189,6.0,10.0,76,0.00,,SCT110,0.00,232.00,VWS V14.00,2013-09-23 15:08:00,
2013-09-23 10:13:00,65.7,57.9,29.45,South,189,7.0,10.0,76,0.00,,SCT110,0.00,213.00,VWS V14.00,2013-09-23 15:13:00,
2013-09-23 10:18:00,65.7,57.9,29.45,South,181,9.0,10.0,76,0.00,,SCT110,0.00,246.00,VWS V14.00,2013-09-23 15:18:00,
2013-09-23 10:23:00,65.7,57.9,29.45,SSW,200,9.0,13.0,76,0.00,,SCT110,0.00,227.00,VWS V14.00,2013-09-23 15:23:00,
2013-09-23 10:29:00,65.6,58.2,29.46,SSW,197,7.0,13.0,77,0.00,,SCT110,0.00,193.00,VWS V14.00,2013-09-23 15:29:00,
2013-09-23 10:34:00,65.6,58.2,29.46,SSW,196,7.0,9.0,77,0.00,,SCT110,0.00,162.00,VWS V14.00,2013-09-23 15:34:00,
2013-09-23 10:39:00,65.6,58.2,29.46,SSW,202,6.0,11.0,77,0.00,,SCT110,0.00,144.00,VWS V14.00,2013-09-23 15:39:00,
2013-09-23 10:44:00,65.5,58.1,29.46,SSW,209,7.0,11.0,77,0.00,,BKN110,0.00,165.00,VWS V14.00,2013-09-23 15:44:00,
2013-09-23 10:49:00,65.7,58.3,29.46,SSW,209,6.0,11.0,77,0.00,,BKN110,0.00,225.00,VWS V14.00,2013-09-23 15:49:00,
2013-09-23 10:54:00,66.4,59.0,29.46,SSW,209,7.0,11.0,77,0.00,,BKN110,0.00,515.00,VWS V14.00,2013-09-23 15:54:00,
2013-09-23 10:59:00,67.0,59.2,29.46,SW,218,7.0,11.0,76,0.00,,BKN110,0.00,478.00,VWS V14.00,2013-09-23 15:59:00,
2013-09-23 11:04:00,67.4,59.2,29.46,SSW,209,7.0,9.0,75,0.00,,BKN110,0.00,497.00,VWS V14.00,2013-09-23 16:04:00,
2013-09-23 11:09:00,67.9,59.3,29.47,SSW,209,9.0,10.0,74,0.00,,BKN110,0.00,364.00,VWS V14.00,2013-09-23 16:09:00,
2013-09-23 11:14:00,67.8,59.2,29.47,WSW,246,10.0,10.0,74,0.00,,BKN110,0.00,420.00,VWS V14.00,2013-09-23 16:14:00,
2013-09-23 11:19:00,67.8,58.8,29.47,WSW,252,6.0,10.0,73,0.00,,BKN110,0.00,216.00,VWS V14.00,2013-09-23 16:19:00,
2013-09-23 11:24:00,67.9,59.3,29.47,WSW,240,7.0,10.0,74,0.00,,BKN110,0.00,408.00,VWS V14.00,2013-09-23 16:24:00,
2013-09-23 11:29:00,68.3,59.7,29.46,SW,236,7.0,11.0,74,0.00,,BKN110,0.00,364.00,VWS V14.00,2013-09-23 16:29:00,
2013-09-23 11:34:00,68.3,59.7,29.46,West,281,10.0,12.0,74,0.00,,BKN110,0.00,441.00,VWS V14.00,2013-09-23 16:34:00,
2013-09-23 11:39:00,68.5,59.5,29.46,WNW,284,9.0,12.0,73,0.00,,BKN110,0.00,366.00,VWS V14.00,2013-09-23 16:39:00,
2013-09-23 11:44:00,68.4,59.4,29.47,WNW,284,5.0,12.0,73,0.00,,BKN110,0.00,195.00,VWS V14.00,2013-09-23 16:44:00,
2013-09-23 11:49:00,67.9,59.7,29.47,WSW,250,5.0,12.0,75,0.00,,BKN110,0.00,243.00,VWS V14.00,2013-09-23 16:49:00,
2013-09-23 11:54:00,68.1,61.0,29.47,WNW,286,14.0,15.0,78,0.00,,BKN110,0.00,425.00,VWS V14.00,2013-09-23 16:54:00,
2013-09-23 11:59:00,67.7,61.3,29.47,WNW,300,10.0,16.0,80,0.00,,BKN110,0.00,332.00,VWS V14.00,2013-09-23 16:59:00,
2013-09-23 12:04:00,67.4,61.0,29.47,NW,309,11.0,15.0,80,0.00,,BKN110,0.00,399.00,VWS V14.00,2013-09-23 17:04:00,
2013-09-23 12:09:00,66.8,60.4,29.48,WNW,302,10.0,15.0,80,0.00,,BKN110,0.00,364.00,VWS V14.00,2013-09-23 17:09:00,
2013-09-23 12:14:00,66.9,60.9,29.48,WNW,298,10.0,15.0,81,0.00,,BKN110,0.00,519.00,VWS V14.00,2013-09-23 17:14:00,
2013-09-23 12:19:00,67.2,60.8,29.48,WNW,300,11.0,15.0,80,0.00,,BKN110,0.00,281.00,VWS V14.00,2013-09-23 17:19:00,
2013-09-23 12:24:00,66.7,60.3,29.48,WNW,290,7.0,15.0,80,0.00,,BKN110,0.00,279.00,VWS V14.00,2013-09-23 17:24:00,
2013-09-23 12:29:00,66.8,60.4,29.49,WNW,295,10.0,10.0,80,0.00,,BKN110,0.00,318.00,VWS V14.00,2013-09-23 17:29:00,
2013-09-23 12:34:00,66.8,60.4,29.49,NW,310,5.0,10.0,80,0.00,,BKN110,0.00,383.00,VWS V14.00,2013-09-23 17:34:00,
2013-09-23 12:39:00,67.1,60.0,29.49,NW,311,5.0,10.0,78,0.00,,BKN110,0.00,381.00,VWS V14.00,2013-09-23 17:39:00,
2013-09-23 12:44:00,67.4,60.7,29.50,WNW,297,4.0,10.0,79,0.00,,FEW120,0.00,441.00,VWS V14.00,2013-09-23 17:44:00,
2013-09-23 12:49:00,67.2,60.5,29.49,WNW,291,3.0,10.0,79,0.00,,FEW120,0.00,346.00,VWS V14.00,2013-09-23 17:49:00,
2013-09-23 12:55:00,67.1,60.4,29.50,WNW,289,8.0,10.0,79,0.00,,FEW120,0.00,190.00,VWS V14.00,2013-09-23 17:55:00,
2013-09-23 13:00:00,66.7,60.3,29.50,West,280,9.0,10.0,80,0.00,,FEW120,0.00,171.00,VWS V14.00,2013-09-23 18:00:00,
2013-09-23 13:05:00,66.4,60.4,29.50,WNW,286,8.0,10.0,81,0.00,,FEW120,0.00,234.00,VWS V14.00,2013-09-23 18:05:00,
2013-09-23 13:10:00,66.2,60.2,29.50,WNW,284,6.0,10.0,81,0.00,,FEW120,0.00,206.00,VWS V14.00,2013-09-23 18:10:00,
2013-09-23 13:15:00,66.2,60.2,29.50,WNW,288,6.0,10.0,81,0.00,,FEW120,0.00,167.00,VWS V14.00,2013-09-23 18:15:00,
2013-09-23 13:20:00,65.8,59.8,29.50,WNW,294,10.0,11.0,81,0.00,,FEW120,0.00,97.00,VWS V14.00,2013-09-23 18:20:00,
2013-09-23 13:25:00,65.6,60.0,29.50,NW,304,6.0,11.0,82,0.00,,FEW120,0.00,100.00,VWS V14.00,2013-09-23 18:25:00,
2013-09-23 13:30:00,65.4,59.4,29.51,WNW,300,8.0,10.0,81,0.00,,FEW120,0.00,105.00,VWS V14.00,2013-09-23 18:30:00,
2013-09-23 13:35:00,65.3,59.7,29.51,WNW,288,8.0,11.0,82,0.00,,FEW120,0.00,153.00,VWS V14.00,2013-09-23 18:35:00,
2013-09-23 13:40:00,65.5,59.5,29.51,West,275,8.0,12.0,81,0.00,,FEW120,0.00,153.00,VWS V14.00,2013-09-23 18:40:00,
2013-09-23 13:45:00,65.4,59.4,29.52,WNW,292,9.0,12.0,81,0.00,,BKN110,0.00,116.00,VWS V14.00,2013-09-23 18:45:00,
2013-09-23 13:50:00,65.1,59.5,29.52,WNW,284,10.0,12.0,82,0.00,,BKN110,0.00,67.00,VWS V14.00,2013-09-23 18:50:00,
2013-09-23 13:55:00,64.1,58.5,29.52,WNW,292,14.0,18.0,82,0.00,,OVC031,0.00,58.00,VWS V14.00,2013-09-23 18:55:00,
2013-09-23 14:00:00,63.4,58.2,29.52,WNW,282,16.0,16.0,83,0.00,,OVC031,0.00,49.00,VWS V14.00,2013-09-23 19:00:00,
2013-09-23 14:05:00,62.9,58.0,29.53,WNW,292,11.0,17.0,84,0.00,,OVC031,0.00,56.00,VWS V14.00,2013-09-23 19:05:00,
2013-09-23 14:10:00,62.7,57.8,29.53,WNW,297,13.0,17.0,84,0.00,,OVC031,0.00,67.00,VWS V14.00,2013-09-23 19:10:00,
2013-09-23 14:15:00,62.6,58.0,29.53,NW,304,9.0,17.0,85,0.00,,OVC031,0.00,118.00,VWS V14.00,2013-09-23 19:15:00,
2013-09-23 14:20:00,62.8,58.2,29.53,WNW,303,10.0,17.0,85,0.00,,OVC031,0.00,151.00,VWS V14.00,2013-09-23 19:20:00,
2013-09-23 14:25:00,62.8,58.2,29.53,WNW,299,12.0,17.0,85,0.00,,OVC031,0.00,104.00,VWS V14.00,2013-09-23 19:25:00,
2013-09-23 14:30:00,62.6,58.0,29.53,WNW,303,14.0,15.0,85,0.00,,OVC031,0.00,109.00,VWS V14.00,2013-09-23 19:30:00,
2013-09-23 14:35:00,62.5,57.9,29.53,NW,315,9.0,16.0,85,0.00,,OVC031,0.00,127.00,VWS V14.00,2013-09-23 19:35:00,
2013-09-23 14:40:00,62.3,57.7,29.53,NW,311,14.0,20.0,85,0.00,,OVC031,0.00,130.00,VWS V14.00,2013-09-23 19:40:00,
2013-09-23 14:45:00,62.1,57.5,29.53,NW,322,13.0,21.0,85,0.00,,,0.00,121.00,VWS V14.00,2013-09-23 19:45:00,
2013-09-23 14:51:00,61.7,57.5,29.54,NW,306,18.0,21.0,86,0.00,,OVC037,0.00,79.00,VWS V14.00,2013-09-23 19:51:00,
2013-09-23 14:56:00,61.4,57.5,29.54,NW,313,12.0,21.0,87,0.00,,OVC037,0.00,84.00,VWS V14.00,2013-09-23 19:56:00,
2013-09-23 15:01:00,61.1,57.2,29.54,NW,306,16.0,19.0,87,0.00,,OVC037,0.00,77.00,VWS V14.00,2013-09-23 20:01:00,
2013-09-23 15:06:00,60.8,57.2,29.54,NW,309,13.0,19.0,88,0.00,,OVC037,0.00,81.00,VWS V14.00,2013-09-23 20:06:00,
2013-09-23 15:11:00,60.5,57.2,29.55,NW,315,10.0,19.0,89,0.00,,OVC037,0.00,72.00,VWS V14.00,2013-09-23 20:11:00,
2013-09-23 15:16:00,60.3,57.4,29.55,NW,315,12.0,19.0,90,0.00,,OVC037,0.00,62.00,VWS V14.00,2013-09-23 20:16:00,
2013-09-23 15:22:00,60.3,57.0,29.55,NW,307,10.0,19.0,89,0.00,,OVC037,0.00,46.00,VWS V14.00,2013-09-23 20:22:00,
2013-09-23 15:27:00,60.2,57.0,29.56,NW,307,8.0,19.0,89,0.00,,OVC037,0.00,26.00,VWS V14.00,2013-09-23 20:27:00,
2013-09-23 15:32:00,60.1,57.2,29.56,NW,317,11.0,13.0,90,0.00,,OVC037,0.00,21.00,VWS V14.00,2013-09-23 20:32:00,
2013-09-23 15:37:00,59.8,57.2,29.56,NW,308,7.0,18.0,91,0.00,,OVC037,0.00,14.00,VWS V14.00,2013-09-23 20:37:00,
2013-09-23 15:42:00,59.5,57.2,29.57,WNW,301,11.0,18.0,92,0.00,,OVC037,0.00,12.00,VWS V14.00,2013-09-23 20:42:00,
2013-09-23 15:47:00,59.1,56.8,29.57,NW,305,17.0,19.0,92,0.00,,OVC037,0.00,14.00,VWS V14.00,2013-09-23 20:47:00,
2013-09-23 15:52:00,58.6,56.0,29.58,WNW,300,12.0,23.0,91,0.00,,OVC019,0.00,11.00,VWS V14.00,2013-09-23 20:52:00,
2013-09-23 15:57:00,58.3,55.7,29.58,WNW,296,10.0,23.0,91,0.00,,OVC019,0.00,19.00,VWS V14.00,2013-09-23 20:57:00,
2013-09-23 16:02:00,58.1,55.5,29.58,NW,309,11.0,18.0,91,0.00,,OVC019,0.00,26.00,VWS V14.00,2013-09-23 21:02:00,
2013-09-23 16:07:00,58.1,55.5,29.58,NW,304,12.0,18.0,91,0.00,,OVC019,0.00,37.00,VWS V14.00,2013-09-23 21:07:00,
2013-09-23 16:12:00,57.7,55.1,29.59,NW,304,16.0,20.0,91,0.00,,OVC019,0.00,35.00,VWS V14.00,2013-09-23 21:12:00,
2013-09-23 16:17:00,57.3,55.0,29.59,NW,310,12.0,20.0,92,0.01,,OVC019,0.01,26.00,VWS V14.00,2013-09-23 21:17:00,
2013-09-23 16:22:00,57.1,55.1,29.60,WNW,302,14.0,20.0,93,0.01,,OVC019,0.01,16.00,VWS V14.00,2013-09-23 21:22:00,
2013-09-23 16:27:00,57.0,55.0,29.60,WNW,302,8.0,20.0,93,0.01,,OVC019,0.01,12.00,VWS V14.00,2013-09-23 21:27:00,
2013-09-23 16:32:00,56.8,54.8,29.61,NW,309,9.0,15.0,93,0.01,,OVC019,0.01,9.00,VWS V14.00,2013-09-23 21:32:00,
2013-09-23 16:38:00,56.5,54.5,29.61,NW,313,10.0,15.0,93,0.01,,OVC019,0.01,16.00,VWS V14.00,2013-09-23 21:38:00,
2013-09-23 16:43:00,56.4,54.7,29.61,NW,321,12.0,17.0,94,0.01,,-RA,0.01,16.00,VWS V14.00,2013-09-23 21:43:00,
2013-09-23 16:48:00,56.2,54.5,29.61,NW,312,12.0,17.0,94,0.02,,-RA,0.02,12.00,VWS V14.00,2013-09-23 21:48:00,
2013-09-23 16:53:00,56.1,54.4,29.61,NW,305,13.0,18.0,94,0.02,,-RA,0.02,12.00,VWS V14.00,2013-09-23 21:53:00,
2013-09-23 16:58:00,55.9,54.2,29.62,NW,313,11.0,18.0,94,0.02,,-RA,0.02,14.00,VWS V14.00,2013-09-23 21:58:00,
2013-09-23 17:03:00,55.8,54.1,29.62,NW,308,9.0,18.0,94,0.02,,-RA,0.02,18.00,VWS V14.00,2013-09-23 22:03:00,
2013-09-23 17:08:00,55.8,54.4,29.63,NW,315,10.0,18.0,95,0.02,,-RA,0.02,28.00,VWS V14.00,2013-09-23 22:08:00,
2013-09-23 17:13:00,55.9,54.5,29.63,NW,310,10.0,18.0,95,0.03,,-RA,0.03,42.00,VWS V14.00,2013-09-23 22:13:00,
2013-09-23 17:18:00,56.0,54.6,29.63,NW,319,10.0,18.0,95,0.04,,-RA,0.04,51.00,VWS V14.00,2013-09-23 22:18:00,
2013-09-23 17:23:00,56.0,54.6,29.62,NW,324,11.0,18.0,95,0.04,,-RA,0.04,53.00,VWS V14.00,2013-09-23 22:23:00,
2013-09-23 17:28:00,56.1,54.7,29.63,NW,317,11.0,18.0,95,0.04,,-RA,0.04,25.00,VWS V14.00,2013-09-23 22:28:00,
2013-09-23 17:33:00,56.2,54.8,29.64,WNW,298,8.0,11.0,95,0.03,,-RA,0.04,19.00,VWS V14.00,2013-09-23 22:33:00,
2013-09-23 17:38:00,56.1,54.7,29.65,WNW,291,9.0,13.0,95,0.03,,-RA,0.04,25.00,VWS V14.00,2013-09-23 22:38:00,
2013-09-23 17:43:00,56.2,54.8,29.66,WNW,290,9.0,13.0,95,0.04,,-RA,0.05,30.00,VWS V14.00,2013-09-23 22:43:00,
2013-09-23 17:48:00,56.2,54.8,29.66,NW,311,8.0,13.0,95,0.05,,-RA,0.06,44.00,VWS V14.00,2013-09-23 22:48:00,
2013-09-23 17:53:00,56.2,54.5,29.66,NW,308,9.0,14.0,94,0.05,,-RA,0.06,42.00,VWS V14.00,2013-09-23 22:53:00,
2013-09-23 17:59:00,56.2,54.5,29.66,NW,311,8.0,14.0,94,0.06,,-RA,0.07,32.00,VWS V14.00,2013-09-23 22:59:00,
2013-09-23 18:04:00,56.1,54.4,29.67,NW,309,7.0,13.0,94,0.05,,-RA,0.07,37.00,VWS V14.00,2013-09-23 23:04:00,
2013-09-23 18:09:00,56.1,54.4,29.67,NW,318,9.0,13.0,94,0.06,,-RA,0.08,40.00,VWS V14.00,2013-09-23 23:09:00,
2013-09-23 18:14:00,56.1,54.4,29.67,NW,317,9.0,13.0,94,0.06,,-RA,0.08,33.00,VWS V14.00,2013-09-23 23:14:00,
2013-09-23 18:19:00,56.2,54.5,29.67,NW,313,7.0,13.0,94,0.07,,-RA,0.09,26.00,VWS V14.00,2013-09-23 23:19:00,
2013-09-23 18:24:00,56.2,54.5,29.68,NW,313,5.0,13.0,94,0.07,,-RA,0.09,25.00,VWS V14.00,2013-09-23 23:24:00,
2013-09-23 18:29:00,56.2,54.5,29.68,NW,313,5.0,13.0,94,0.07,,-RA,0.09,26.00,VWS V14.00,2013-09-23 23:29:00,
2013-09-23 18:34:00,56.2,54.8,29.67,NW,313,5.0,7.0,95,0.06,,-RA,0.10,25.00,VWS V14.00,2013-09-23 23:34:00,
2013-09-23 18:39:00,56.2,54.8,29.67,NW,313,7.0,7.0,95,0.06,,-RA,0.10,26.00,VWS V14.00,2013-09-23 23:39:00,
2013-09-23 18:44:00,56.4,55.0,29.67,NW,313,6.0,8.0,95,0.06,,-RA,0.10,26.00,VWS V14.00,2013-09-23 23:44:00,
2013-09-23 18:49:00,56.4,55.0,29.68,NW,312,6.0,8.0,95,0.06,,-RA,0.10,25.00,VWS V14.00,2013-09-23 23:49:00,
2013-09-23 18:54:00,56.3,54.9,29.68,WNW,302,7.0,10.0,95,0.07,,-RA,0.11,23.00,VWS V14.00,2013-09-23 23:54:00,
2013-09-23 18:59:00,56.4,55.0,29.68,WNW,302,4.0,10.0,95,0.07,,-RA,0.11,16.00,VWS V14.00,2013-09-23 23:59:00,
2013-09-23 19:05:00,56.4,55.0,29.68,NW,306,5.0,7.0,95,0.04,,-RA,0.11,11.00,VWS V14.00,2013-09-24 00:05:00,
2013-09-23 19:11:00,56.2,54.8,29.69,NW,307,4.0,7.0,95,0.04,,-RA,0.11,5.00,VWS V14.00,2013-09-24 00:11:00,
2013-09-23 19:18:00,56.1,54.7,29.69,NW,311,7.0,9.0,95,0.05,,-RA,0.12,5.00,VWS V14.00,2013-09-24 00:18:00,
2013-09-23 19:23:00,56.0,54.6,29.69,NW,309,6.0,9.0,95,0.05,,-RA,0.12,0.00,VWS V14.00,2013-09-24 00:23:00,
2013-09-23 19:28:00,55.8,54.4,29.69,NW,304,6.0,9.0,95,0.05,,-RA,0.12,0.00,VWS V14.00,2013-09-24 00:28:00,
2013-09-23 19:33:00,55.7,54.3,29.70,WNW,299,4.0,8.0,95,0.02,,-RA,0.12,0.00,VWS V14.00,2013-09-24 00:33:00,
2013-09-23 19:38:00,55.6,54.2,29.70,WNW,298,6.0,9.0,95,0.03,,-RA,0.13,0.00,VWS V14.00,2013-09-24 00:38:00,
2013-09-23 19:43:00,55.5,54.1,29.71,WNW,294,6.0,9.0,95,0.03,,-RA,0.13,0.00,VWS V14.00,2013-09-24 00:43:00,
2013-09-23 19:48:00,55.4,54.0,29.72,WNW,294,6.0,9.0,95,0.03,,-RA,0.13,0.00,VWS V14.00,2013-09-24 00:48:00,
2013-09-23 19:53:00,55.2,53.8,29.72,WNW,293,4.0,9.0,95,0.04,,-RA,0.14,0.00,VWS V14.00,2013-09-24 00:53:00,
2013-09-23 19:58:00,55.0,53.6,29.73,WNW,293,3.0,9.0,95,0.04,,-RA,0.14,0.00,VWS V14.00,2013-09-24 00:58:00,
2013-09-23 20:03:00,55.0,53.6,29.73,WNW,293,3.0,4.0,95,0.03,,-RA,0.14,0.00,VWS V14.00,2013-09-24 01:03:00,
2013-09-23 20:08:00,54.9,53.5,29.74,WNW,293,3.0,4.0,95,0.04,,-RA,0.15,0.00,VWS V14.00,2013-09-24 01:08:00,
2013-09-23 20:13:00,54.8,53.4,29.74,WNW,293,2.0,4.0,95,0.05,,-RA,0.16,0.00,VWS V14.00,2013-09-24 01:13:00,
2013-09-23 20:18:00,54.8,53.4,29.74,WNW,293,2.0,4.0,95,0.05,,-RA,0.16,0.00,VWS V14.00,2013-09-24 01:18:00,
2013-09-23 20:23:00,54.8,53.4,29.74,WNW,293,3.0,4.0,95,0.05,,-RA,0.16,0.00,VWS V14.00,2013-09-24 01:23:00,
2013-09-23 20:28:00,54.8,53.4,29.74,WNW,293,4.0,5.0,95,0.06,,-RA,0.17,0.00,VWS V14.00,2013-09-24 01:28:00,
2013-09-23 20:33:00,54.7,53.3,29.74,WNW,293,4.0,4.0,95,0.05,,-RA,0.17,0.00,VWS V14.00,2013-09-24 01:33:00,
2013-09-23 20:38:00,54.6,53.2,29.74,WNW,293,2.0,4.0,95,0.05,,-RA,0.17,0.00,VWS V14.00,2013-09-24 01:38:00,
2013-09-23 20:43:00,54.5,53.1,29.75,WNW,293,3.0,4.0,95,0.06,,-RA,0.18,0.00,VWS V14.00,2013-09-24 01:43:00,
2013-09-23 20:48:00,54.4,53.0,29.74,WNW,293,4.0,4.0,95,0.06,,-RA,0.18,0.00,VWS V14.00,2013-09-24 01:48:00,
2013-09-23 20:53:00,54.4,53.0,29.75,WNW,293,4.0,4.0,95,0.07,,-RA,0.19,0.00,VWS V14.00,2013-09-24 01:53:00,
2013-09-23 20:58:00,54.3,53.2,29.75,WNW,293,3.0,4.0,96,0.08,,-RA,0.20,0.00,VWS V14.00,2013-09-24 01:58:00,
2013-09-23 21:03:00,54.3,53.2,29.75,WNW,293,1.0,4.0,96,0.06,,-RA,0.20,0.00,VWS V14.00,2013-09-24 02:03:00,
2013-09-23 21:08:00,54.3,53.2,29.75,WNW,293,2.0,4.0,96,0.07,,-RA,0.21,0.00,VWS V14.00,2013-09-24 02:08:00,
2013-09-23 21:13:00,54.3,53.2,29.75,WNW,293,2.0,4.0,96,0.07,,-RA,0.21,0.00,VWS V14.00,2013-09-24 02:13:00,
2013-09-23 21:18:00,54.3,53.2,29.74,WNW,293,1.0,4.0,96,0.08,,-RA,0.22,0.00,VWS V14.00,2013-09-24 02:18:00,
2013-09-23 21:23:00,54.3,53.2,29.74,WNW,293,2.0,4.0,96,0.08,,-RA,0.22,0.00,VWS V14.00,2013-09-24 02:23:00,
2013-09-23 21:28:00,54.3,53.2,29.75,WNW,293,1.0,4.0,96,0.08,,-RA,0.22,0.00,VWS V14.00,2013-09-24 02:28:00,
2013-09-23 21:33:00,54.2,53.1,29.75,WNW,293,2.0,3.0,96,0.05,,-RA,0.22,0.00,VWS V14.00,2013-09-24 02:33:00,
2013-09-23 21:38:00,54.2,53.1,29.75,WNW,293,1.0,4.0,96,0.05,,-RA,0.22,0.00,VWS V14.00,2013-09-24 02:38:00,
2013-09-23 21:43:00,54.1,53.0,29.75,WNW,293,2.0,4.0,96,0.05,,-RA,0.22,0.00,VWS V14.00,2013-09-24 02:43:00,
2013-09-23 21:48:00,54.0,52.9,29.75,WNW,293,1.0,4.0,96,0.05,,-RA,0.22,0.00,VWS V14.00,2013-09-24 02:48:00,
2013-09-23 21:53:00,54.0,52.9,29.75,WNW,293,0.0,4.0,96,0.05,,-RA,0.22,0.00,VWS V14.00,2013-09-24 02:53:00,
2013-09-23 21:59:00,54.0,52.9,29.75,WNW,293,1.0,4.0,96,0.05,,-RA,0.22,0.00,VWS V14.00,2013-09-24 02:59:00,
2013-09-23 22:04:00,54.0,52.9,29.76,WNW,293,0.0,1.0,96,0.02,,-RA,0.22,0.00,VWS V14.00,2013-09-24 03:04:00,
2013-09-23 22:09:00,54.0,52.9,29.76,WNW,293,0.0,1.0,96,0.02,,-RA,0.22,0.00,VWS V14.00,2013-09-24 03:09:00,
2013-09-23 22:14:00,53.9,52.8,29.76,WNW,293,0.0,1.0,96,0.02,,-RA,0.22,0.00,VWS V14.00,2013-09-24 03:14:00,
2013-09-23 22:19:00,53.9,52.8,29.77,WNW,293,0.0,1.0,96,0.02,,-RA,0.22,0.00,VWS V14.00,2013-09-24 03:19:00,
2013-09-23 22:24:00,53.9,52.8,29.77,WNW,293,0.0,1.0,96,0.02,,-RA,0.22,0.00,VWS V14.00,2013-09-24 03:24:00,
2013-09-23 22:29:00,53.9,52.8,29.77,WNW,293,2.0,2.0,96,0.02,,-RA,0.22,0.00,VWS V14.00,2013-09-24 03:29:00,
2013-09-23 22:34:00,53.8,52.7,29.77,WNW,293,1.0,2.0,96,0.00,,-RA,0.22,0.00,VWS V14.00,2013-09-24 03:34:00,
2013-09-23 22:39:00,53.8,52.7,29.77,WNW,293,1.0,2.0,96,0.00,,-RA,0.22,0.00,VWS V14.00,2013-09-24 03:39:00,
2013-09-23 22:44:00,53.7,52.6,29.77,WNW,293,3.0,3.0,96,0.00,,BKN100,0.22,0.00,VWS V14.00,2013-09-24 03:44:00,
2013-09-23 22:49:00,53.6,52.5,29.78,WNW,293,3.0,3.0,96,0.00,,BKN100,0.22,0.00,VWS V14.00,2013-09-24 03:49:00,
2013-09-23 22:54:00,53.5,52.4,29.78,WNW,293,0.0,3.0,96,0.00,,BKN100,0.22,0.00,VWS V14.00,2013-09-24 03:54:00,
2013-09-23 22:59:00,53.4,52.3,29.78,WNW,293,0.0,3.0,96,0.00,,BKN100,0.22,0.00,VWS V14.00,2013-09-24 03:59:00,
2013-09-23 23:01:00,53.4,52.3,29.78,WNW,293,0.0,0.0,96,0.00,,BKN100,0.22,0.00,VWS V14.00,2013-09-24 04:01:00,
2013-09-23 23:03:00,53.4,52.3,29.78,WNW,293,0.0,0.0,96,0.00,,BKN100,0.22,0.00,VWS V14.00,2013-09-24 04:03:00,
2013-09-23 23:05:00,53.4,52.3,29.78,WNW,293,0.0,1.0,96,0.00,,BKN100,0.22,0.00,VWS V14.00,2013-09-24 04:05:00,
2013-09-23 23:08:00,53.4,52.3,29.78,WNW,293,2.0,2.0,96,0.00,,BKN100,0.22,0.00,VWS V14.00,2013-09-24 04:08:00,
2013-09-23 23:11:00,53.5,52.4,29.78,WNW,293,2.0,2.0,96,0.00,,BKN100,0.22,0.00,VWS V14.00,2013-09-24 04:11:00,
2013-09-23 23:16:00,53.6,52.5,29.79,WNW,293,4.0,4.0,96,0.00,,BKN100,0.22,0.00,VWS V14.00,2013-09-24 04:16:00,
2013-09-23 23:21:00,53.6,52.5,29.79,WNW,293,2.0,4.0,96,0.00,,BKN100,0.22,0.00,VWS V14.00,2013-09-24 04:21:00,
2013-09-23 23:26:00,53.6,52.5,29.79,West,261,1.0,5.0,96,0.00,,BKN100,0.22,0.00,VWS V14.00,2013-09-24 04:26:00,
2013-09-23 23:31:00,53.6,52.5,29.79,West,261,3.0,4.0,96,0.00,,BKN100,0.22,0.00,VWS V14.00,2013-09-24 04:31:00,
2013-09-23 23:36:00,53.6,52.5,29.79,West,261,3.0,4.0,96,0.00,,BKN100,0.22,0.00,VWS V14.00,2013-09-24 04:36:00,
2013-09-23 23:41:00,53.6,52.5,29.79,West,261,1.0,4.0,96,0.00,,CLR,0.22,0.00,VWS V14.00,2013-09-24 04:41:00,
2013-09-23 23:46:00,53.5,52.4,29.80,West,261,3.0,4.0,96,0.00,,CLR,0.22,0.00,VWS V14.00,2013-09-24 04:46:00,
2013-09-23 23:51:00,53.5,52.4,29.80,West,261,2.0,4.0,96,0.00,,CLR,0.22,0.00,VWS V14.00,2013-09-24 04:51:00,
2013-09-23 23:56:00,53.6,52.5,29.80,West,261,3.0,4.0,96,0.00,,CLR,0.22,0.00,VWS V14.00,2013-09-24 04:56:00,